Terminal Aerodrome Forecast
Issued by NWS

Home | Current Version | Previous Version | Graphics & Text | Print | Product List | Glossary Off
Versions: 1 2 3 4 5 6 7 8 9 10 11 12 13 14 15 16 17 18 19 20 21 22 23 24 25 26 27 28 29 30

000
FTUS43 KDDC 161120
TAFGCK
TAF
KGCK 161120Z 1612/1712 36011KT 1SM -SN OVC005
     FM161700 34013KT P6SM VCSH OVC003
     FM161900 34013KT P6SM OVC008
     FM170000 33010KT P6SM OVC010
     FM170600 32008KT P6SM BKN020=

USA.gov is the U.S. government's official web portal to all federal, state and local government web resources and services.